Theta_e
285 285 284 283 283 283 282 281 281 281 280 281 281 281 281 281 282 281 281 281 281 281 281 281 280 280 279 278 278 278 276 276 265 266 264 264 266 270 273 273 275 275 276
285 284 284 284 283 281 281 281 281 280 280 280 280 280 280 281 280 281 281 280 280 280 279 279 279 280 276 276 275 275 275 274 269 260 260 264 263 262 266 266 273 275 275
285 285 284 283 282 281 280 280 281 280 280 279 280 280 280 280 280 280 280 280 279 279 279 279 277 276 276 275 275 274 273 275 270 266 264 261 261 262 267 269 273 268 275
285 284 282 282 281 281 281 280 280 280 279 279 279 280 280 280 280 280 280 279 279 279 280 278 277 276 276 275 276 275 273 271 268 264 262 262 261 264 264 267 272 272 271
284 283 282 282 281 281 280 280 281 280 279 279 279 279 279 279 280 280 280 279 279 278 279 280 279 278 281 279 277 275 274 265 264 266 266 264 264 265 266 268 271 273 271
284 283 283 282 281 281 281 280 280 280 279 279 278 278 278 280 284 285 281 279 279 279 278 278 279 278 280 283 282 280 278 273 266 266 262 265 264 263 266 270 272 272 270
284 283 283 282 281 281 281 280 280 279 279 278 278 278 278 278 285 286 285 280 279 278 278 278 278 278 277 278 280 280 279 280 277 271 268 269 266 268 270 272 272 272 271
283 283 282 282 281 281 280 279 279 279 278 278 278 278 278 279 285 287 286 279 278 278 278 277 278 276 276 276 274 273 274 274 274 275 272 270 272 274 273 273 273 273 273
283 283 282 281 281 280 279 279 278 279 278 278 279 278 278 279 284 286 285 278 278 277 278 277 277 276 278 280 274 273 273 273 279 280 279 278 278 279 276 273 270 268 266
283 283 282 282 281 280 280 279 279 279 280 280 280 279 279 279 284 286 285 279 278 278 277 278 279 276 280 282 276 274 272 272 273 273 272 273 273 273 276 271 270 267 265
285 284 283 282 282 281 280 280 280 279 280 279 280 280 279 280 280 286 287 280 279 278 278 277 278 282 281 282 283 275 274 274 276 273 271 270 271 271 271 271 270 269 266
284 283 282 281 281 281 280 280 279 279 278 278 278 278 280 280 281 284 287 286 282 279 278 278 278 282 283 283 282 282 281 279 272 269 268 268 268 268 268 269 270 270 269
280 278 277 278 280 280 279 278 277 278 277 277 278 278 278 280 280 285 285 287 287 281 279 280 281 282 283 283 284 283 278 273 271 267 267 267 268 266 265 263 263 262 261
276 275 274 275 275 275 278 279 278 277 277 277 277 278 278 278 279 280 282 283 285 285 283 280 281 282 282 279 274 279 274 273 272 271 267 264 263 263 262 262 261 259 259
274 274 274 274 272 273 276 277 278 279 279 277 278 278 276 277 279 282 281 281 282 284 277 271 272 275 276 275 269 271 271 269 269 269 266 264 262 262 262 257 257 255 259
276 275 274 274 271 272 272 274 281 283 284 285 285 281 280 283 285 285 285 285 285 285 275 272 278 278 277 277 275 272 270 270 270 268 268 266 265 264 263 258 255 256 259
276 276 273 273 274 272 273 272 273 277 284 285 286 286 286 286 285 285 286 286 286 286 282 278 279 279 278 277 277 275 273 272 271 269 269 268 267 265 263 262 260 257 257
275 275 273 272 273 270 270 272 272 275 278 276 284 285 285 286 287 287 287 286 283 284 283 282 280 280 279 278 277 276 274 272 269 270 269 269 268 266 263 263 263 263 259
270 271 269 269 269 271 272 279 281 281 281 282 282 284 284 286 286 287 287 284 283 282 283 283 283 282 280 279 278 277 276 273 271 271 270 270 269 267 266 267 266 264 261
264 267 267 266 266 266 273 278 279 280 281 281 282 282 282 282 282 282 284 285 284 284 284 283 283 284 282 280 279 277 275 274 272 272 272 271 270 269 269 269 267 265 263
263 264 265 263 263 264 276 278 279 280 280 281 282 283 285 282 282 282 282 282 283 284 284 284 284 284 284 282 280 278 276 275 275 274 273 272 271 268 269 270 268 267 265
264 263 261 262 262 272 276 278 279 279 280 281 282 280 285 284 284 283 283 283 283 284 285 285 284 284 284 284 282 280 278 276 277 276 275 273 272 270 270 268 268 267 266
261 263 260 269 274 274 275 277 278 279 280 281 282 282 281 283 283 283 283 284 284 284 285 285 285 285 285 285 285 283 281 279 279 278 276 275 273 271 269 269 269 268 267
262 263 265 264 264 265 265 266 268 271 272 278 280 281 282 282 283 283 284 284 284 284 285 285 285 285 285 285 285 284 283 283 282 280 279 277 275 273 271 269 270 269 269
262 261 261 263 262 264 261 262 264 264 268 273 273 274 281 282 283 283 284 285 284 284 284 284 285 285 284 285 285 285 283 282 282 282 280 278 277 275 273 271 271 270 269
266 267 265 260 265 269 270 272 268 276 275 267 269 272 273 273 277 283 283 284 284 285 285 285 285 284 285 285 285 285 285 283 282 281 281 280 277 276 274 273 272 271 270
Wind_Speed
6 6 6 5 5 5 5 5 5 5 5 5 5 5 5 5 4 5 4 4 5 5 4 4 4 3 3 4 3 3 3 3 3 5 3 3 5 8 10 9 8 11 11
7 6 6 6 5 6 5 5 5 6 5 6 5 5 4 4 4 5 4 3 4 4 4 3 3 2 3 4 3 4 3 3 3 2 3 4 2 4 6 5 7 7 9
6 7 6 6 6 5 5 6 6 6 6 5 5 5 5 4 4 4 5 4 4 3 3 3 1 1 2 3 3 3 3 3 2 2 4 2 3 3 5 4 7 5 7
7 6 6 6 6 6 6 6 5 5 6 5 5 5 5 4 4 4 4 4 4 3 3 3 3 2 1 2 3 3 3 3 3 2 2 3 1 4 2 4 8 3 7
7 7 7 6 6 6 6 6 5 5 5 5 5 5 5 5 4 5 5 5 5 4 2 1 2 0 1 1 2 2 3 2 3 3 3 3 4 4 4 4 4 6 3
8 7 6 7 6 7 7 6 6 6 5 5 5 6 6 3 9 10 7 4 5 5 4 3 2 1 0 2 5 5 5 1 3 3 2 2 4 2 2 3 3 4 6
8 7 7 7 7 7 6 6 6 6 5 6 6 5 6 5 10 11 11 4 4 4 5 4 4 2 2 1 2 4 5 7 7 5 2 2 3 3 3 4 4 3 2
7 7 6 7 6 6 6 6 5 5 6 5 5 5 5 5 10 11 11 5 4 5 5 5 5 5 5 3 2 1 1 1 1 2 5 3 3 5 3 2 2 4 2
7 7 7 7 7 7 7 7 5 5 4 4 4 6 6 5 11 12 10 5 5 5 5 5 6 5 8 10 4 3 3 2 1 3 5 5 6 9 9 1 4 4 3
7 7 7 7 7 8 7 7 4 4 5 5 6 6 6 6 11 14 11 4 5 4 5 5 10 6 11 11 5 5 4 4 4 2 1 2 3 5 10 5 1 3 1
5 6 6 6 7 6 6 4 5 5 5 5 6 5 7 7 8 15 17 6 6 5 5 5 5 13 14 13 12 6 6 2 5 3 1 1 1 2 3 3 3 2 2
5 5 5 6 5 5 6 5 4 5 5 5 5 4 5 6 11 15 18 19 12 6 6 5 5 14 15 15 10 11 12 6 1 0 0 2 2 2 2 2 1 2 2
5 3 3 3 4 4 4 5 3 4 4 4 5 5 5 5 6 17 17 19 19 9 6 8 12 14 16 14 15 12 7 4 3 2 3 3 3 1 0 0 2 2 2
4 2 1 3 3 3 2 3 3 4 4 4 5 6 5 3 5 5 7 9 16 12 11 7 9 10 12 8 4 7 3 5 5 4 3 2 0 1 2 0 0 2 2
3 2 2 2 2 2 3 4 5 5 6 5 6 6 4 6 7 11 10 7 8 10 3 2 2 3 5 5 2 4 3 3 5 4 3 3 2 1 2 1 0 1 1
2 0 1 2 2 2 2 3 9 12 12 16 16 10 5 14 13 14 18 20 19 17 3 5 9 9 9 9 8 7 5 7 6 4 4 4 4 4 3 1 0 2 3
3 1 1 1 2 2 2 4 4 3 11 16 17 18 19 17 15 16 17 18 20 16 9 9 10 10 10 9 9 8 9 8 7 7 6 7 5 4 3 3 3 2 3
1 1 1 2 2 2 2 2 2 4 5 3 7 9 13 16 19 20 18 15 10 14 11 11 10 10 9 9 9 9 8 5 7 8 7 7 7 6 4 6 5 5 4
3 3 3 2 3 4 3 4 5 7 7 7 4 6 6 11 13 17 19 10 10 10 10 11 11 9 9 8 8 8 8 8 7 7 8 8 8 7 8 7 6 8 4
3 4 4 3 3 3 3 4 4 5 5 6 5 5 2 3 4 5 6 8 9 10 10 10 9 9 8 9 8 8 7 8 8 8 9 8 8 9 10 9 8 8 8
2 1 2 0 1 2 4 5 5 5 6 6 6 5 11 7 6 7 7 7 7 8 8 9 8 9 8 9 8 8 9 9 9 9 8 9 8 9 9 9 8 8 6
3 3 2 3 2 2 3 4 4 6 7 6 6 4 14 6 7 7 8 8 8 9 8 8 8 8 9 9 9 9 10 10 10 9 10 9 9 9 7 8 8 8 8
3 3 3 3 4 4 4 4 4 4 5 6 5 5 4 5 6 7 8 7 8 8 8 9 9 9 8 8 9 10 11 10 10 9 9 10 9 9 9 10 10 9 9
4 4 4 4 2 3 3 4 4 5 4 5 5 5 5 5 6 7 7 7 7 7 7 8 9 11 10 10 8 9 10 10 8 10 13 10 10 10 9 9 9 12 10
4 4 4 4 3 3 3 4 4 4 3 4 4 4 5 5 6 7 6 6 7 7 9 9 8 11 14 16 15 13 14 16 15 14 10 13 14 14 11 10 10 10 11
4 4 4 2 4 4 5 5 4 6 6 4 4 5 4 4 4 6 6 7 7 7 9 8 10 13 15 13 15 17 18 16 17 20 13 11 11 11 10 12 14 10 11
Wind_Direction
152 151 146 150 146 139 145 153 153 135 138 139 137 133 133 125 115 103 98 100 92 88 68 73 57 33 39 48 30 31 36 67 119 304 263 295 316 354 342 342 348 12 8
153 148 153 147 148 154 157 154 149 146 151 152 147 143 139 130 125 121 105 96 110 105 96 78 42 34 46 55 38 42 34 58 123 240 285 307 315 326 296 321 340 1 13
152 153 150 155 157 163 159 158 159 156 156 150 148 156 154 155 143 128 129 125 111 108 118 102 61 83 62 57 45 50 23 51 78 116 291 297 292 347 330 329 334 332 16
155 159 161 165 169 170 165 165 164 162 155 159 168 163 161 157 157 150 136 129 125 122 108 115 86 43 88 91 61 50 44 52 32 36 328 314 310 311 339 338 347 347 1
157 164 177 169 166 160 162 165 161 166 173 172 166 171 170 173 172 165 162 161 149 139 129 134 102 239 223 301 103 41 77 63 50 23 12 333 334 343 10 314 298 322 319
165 180 169 167 169 173 167 168 164 174 177 174 183 179 184 197 196 188 172 174 169 165 183 199 177 294 146 56 95 90 73 37 79 79 320 331 308 275 301 311 315 354 350
169 170 175 174 181 176 168 164 175 180 169 191 197 190 201 205 207 197 190 188 183 197 195 201 213 215 216 179 102 68 51 69 82 145 118 303 312 278 286 327 347 8 336
175 175 174 172 178 169 170 182 177 171 188 191 198 203 203 216 219 208 191 192 207 217 202 209 225 190 229 202 225 226 302 29 117 122 130 236 260 292 313 258 291 298 290
181 182 180 173 174 174 184 185 175 170 185 197 195 201 205 215 217 214 197 187 207 218 221 215 219 204 222 218 215 232 265 272 316 152 128 80 3 6 23 354 19 29 339
187 191 177 174 177 185 184 181 162 171 190 190 209 205 205 214 220 219 205 188 206 210 223 216 225 214 214 223 210 236 235 244 219 240 273 89 35 349 24 45 312 77 20
171 169 169 174 181 183 172 163 169 182 174 194 210 206 211 205 221 222 219 200 214 202 217 221 219 225 233 218 226 205 235 222 223 222 266 322 88 37 342 9 22 98 116
150 165 172 173 174 168 170 175 172 175 193 203 210 231 228 212 214 226 223 219 213 213 216 220 212 222 229 237 224 230 237 226 107 217 175 280 255 240 224 293 28 51 53
111 137 157 139 155 160 162 169 155 173 184 212 216 234 236 215 221 230 230 230 226 219 222 223 228 226 227 233 233 230 231 144 171 185 236 221 229 246 324 331 324 328 309
102 112 128 161 178 161 161 162 163 181 199 213 219 235 238 215 217 213 217 229 233 227 219 226 231 230 225 206 210 228 185 175 189 202 228 265 312 358 299 326 210 355 65
99 105 137 182 207 203 200 198 197 202 190 205 225 224 209 240 231 226 217 215 220 225 143 101 225 219 219 239 211 215 189 177 203 187 190 221 250 188 237 327 130 41 183
107 136 195 188 209 213 187 274 250 242 229 237 241 227 237 250 253 241 237 237 233 224 157 194 222 221 223 221 223 220 208 209 217 200 201 196 212 217 216 188 350 209 204
165 208 227 231 209 210 221 208 249 279 252 250 250 251 255 254 250 258 256 248 243 228 226 219 226 225 225 220 219 214 221 214 203 202 210 213 205 206 195 217 195 206 273
189 214 182 230 236 236 240 246 246 273 279 266 234 260 265 262 257 255 247 253 249 235 232 232 225 230 229 228 223 222 220 200 200 208 208 211 201 196 191 227 207 206 203
188 191 190 201 207 212 200 219 260 270 270 281 271 253 249 259 261 259 250 236 236 238 235 238 237 221 228 231 229 224 221 218 210 206 212 208 205 194 220 219 215 210 183
233 232 200 193 210 213 215 246 248 249 265 278 275 277 232 219 241 243 254 246 239 247 247 243 241 239 224 221 221 221 216 221 218 213 221 210 204 203 220 216 208 209 209
206 238 222 183 235 239 272 270 269 269 278 277 269 247 247 239 239 233 232 228 252 258 249 244 241 237 234 223 219 214 220 220 221 223 220 218 206 212 216 218 211 210 204
180 189 173 199 219 239 251 264 272 283 286 283 282 263 270 264 253 246 239 239 233 231 236 244 245 236 232 230 218 218 220 223 223 218 221 216 210 217 209 212 211 206 202
168 178 201 218 221 228 235 234 244 255 270 272 277 275 263 266 258 251 254 249 246 244 242 239 239 241 235 231 228 220 224 224 222 217 220 217 212 211 207 213 214 211 208
183 199 209 229 236 243 240 245 243 245 250 272 276 274 275 278 276 267 257 260 257 252 246 244 241 242 243 234 226 225 226 229 222 218 216 221 221 214 210 211 212 217 217
195 217 214 218 225 244 270 273 263 253 243 263 248 256 274 279 282 284 282 274 265 257 253 247 242 245 245 245 243 233 220 219 220 223 218 218 221 217 214 211 211 216 214
211 227 238 239 240 232 247 255 257 266 263 239 259 274 273 259 266 281 278 279 280 271 265 262 256 248 249 248 245 245 242 225 221 225 223 220 219 221 214 219 216 215 211